User: anonymous
Location: Unspecified
(0.0000°N, 0.0000°E)
Time: 01:45:48
(UTC+00:00)
Language:

ISS - Orbit

View from above orbital plane
View from above orbital plane
View from above satellite
View from above satellite

Ground track
Ground track

The orbit data is extracted from the following two-line orbital elements,

1 25544U 98067A   14261.89508370  .00018620  00000-0  32846-3 0  1067
2 25544 051.6466 355.1294 0002392 112.5825 354.8381 15.50429754905861
Epoch (UTC): 18 September 2014 21:28:55
Eccentricity: 0.0002392
inclination: 51.6466°
perigee height: 414 km
apogee height: 417 km
right ascension of ascending node: 355.1294°
argument of perigee: 112.5825°
revolutions per day: 15.50429754
mean anomaly at epoch: 354.8381°
orbit number at epoch: 90586

The dashed part of the orbit path shows where the satellite is in the earth's shadow,  

DLR